Time,TemperatureF,DewpointF,PressureIn,WindDirection,WindDirectionDegrees,WindSpeedMPH,WindSpeedGustMPH,Humidity,HourlyPrecipIn,Conditions,Clouds,dailyrainin,SoftwareType,DateUTC
2013-07-04 00:35:00,72.0,34.0,-100.00,NNE,20,9.0,19.0,24,-99.99,,,-99.99,,2013-07-04 00:35:00,
2013-07-04 00:45:00,71.0,33.0,-100.00,NNE,30,13.0,17.0,24,-99.99,,,-99.99,,2013-07-04 00:45:00,
2013-07-04 00:55:00,71.0,33.0,-100.00,NNE,15,10.0,16.0,24,-99.99,,,-99.99,,2013-07-04 00:55:00,
2013-07-04 01:03:00,71.0,33.0,-100.00,NNE,15,11.0,19.0,24,-99.99,,,-99.99,,2013-07-04 01:03:00,
2013-07-04 01:43:00,66.0,38.0,-100.00,WNW,300,5.0,6.0,36,-99.99,,,-99.99,,2013-07-04 01:43:00,
2013-07-04 02:12:00,65.0,42.0,-100.00,West,270,2.0,6.0,42,-99.99,,,-99.99,,2013-07-04 02:12:00,
2013-07-04 02:45:00,62.0,44.0,-100.00,WSW,255,6.0,7.0,51,-99.99,,,-99.99,,2013-07-04 02:45:00,
2013-07-04 03:45:00,62.0,44.0,-100.00,WNW,285,9.0,12.0,51,-99.99,,,-99.99,,2013-07-04 03:45:00,
2013-07-04 04:02:00,60.0,44.0,-100.00,NW,325,6.0,9.0,53,-99.99,,,-99.99,,2013-07-04 04:02:00,
2013-07-04 04:11:00,62.0,43.0,-100.00,NNW,330,3.0,11.0,49,-99.99,,,-99.99,,2013-07-04 04:11:00,
2013-07-04 04:33:00,63.0,40.0,-100.00,NE,55,3.0,5.0,42,-99.99,,,-99.99,,2013-07-04 04:33:00,
2013-07-04 04:43:00,62.0,40.0,-100.00,East,80,0.0,3.0,44,-99.99,,,-99.99,,2013-07-04 04:43:00,
2013-07-04 05:43:00,55.0,40.0,-100.00,WNW,285,8.0,9.0,55,-99.99,,,-99.99,,2013-07-04 05:43:00,
2013-07-04 06:11:00,55.0,41.0,-100.00,West,280,10.0,11.0,60,-99.99,,,-99.99,,2013-07-04 06:11:00,
2013-07-04 06:43:00,55.0,42.0,-100.00,West,280,10.0,12.0,61,-99.99,,,-99.99,,2013-07-04 06:43:00,
2013-07-04 07:02:00,55.0,42.0,-100.00,West,280,12.0,14.0,61,-99.99,,,-99.99,,2013-07-04 07:02:00,
2013-07-04 07:12:00,56.0,43.0,-100.00,West,270,12.0,16.0,61,-99.99,,,-99.99,,2013-07-04 07:12:00,
2013-07-04 07:43:00,55.0,43.0,-100.00,West,270,11.0,13.0,64,-99.99,,,-99.99,,2013-07-04 07:43:00,
2013-07-04 08:11:00,54.0,44.0,-100.00,West,275,12.0,16.0,66,-99.99,,,-99.99,,2013-07-04 08:11:00,
2013-07-04 08:33:00,54.0,44.0,-100.00,West,270,14.0,19.0,66,-99.99,,,-99.99,,2013-07-04 08:33:00,
2013-07-04 08:42:00,54.0,43.0,-100.00,West,275,12.0,14.0,66,-99.99,,,-99.99,,2013-07-04 08:42:00,
2013-07-04 08:52:00,54.0,44.0,-100.00,West,270,11.0,14.0,67,-99.99,,,-99.99,,2013-07-04 08:52:00,
2013-07-04 09:02:00,54.0,44.0,-100.00,West,275,11.0,14.0,67,-99.99,,,-99.99,,2013-07-04 09:02:00,
2013-07-04 09:42:00,52.0,44.0,-100.00,West,265,12.0,14.0,74,-99.99,,,-99.99,,2013-07-04 09:42:00,
2013-07-04 10:11:00,52.0,45.0,-100.00,WNW,285,7.0,14.0,75,-99.99,,,-99.99,,2013-07-04 10:11:00,
2013-07-04 10:33:00,52.0,45.0,-100.00,West,275,11.0,14.0,77,-99.99,,,-99.99,,2013-07-04 10:33:00,
2013-07-04 10:42:00,51.0,45.0,-100.00,WNW,290,9.0,13.0,79,-99.99,,,-99.99,,2013-07-04 10:42:00,
2013-07-04 11:11:00,52.0,45.0,-100.00,WNW,285,15.0,19.0,77,-99.99,,,-99.99,,2013-07-04 11:11:00,
2013-07-04 11:33:00,52.0,45.0,-100.00,WNW,285,10.0,14.0,77,-99.99,,,-99.99,,2013-07-04 11:33:00,
2013-07-04 11:43:00,52.0,45.0,-100.00,West,280,11.0,15.0,76,-99.99,,,-99.99,,2013-07-04 11:43:00,
2013-07-04 12:11:00,52.0,45.0,-100.00,West,270,11.0,13.0,77,-99.99,,,-99.99,,2013-07-04 12:11:00,
2013-07-04 12:43:00,54.0,46.0,-100.00,West,275,10.0,12.0,74,-99.99,,,-99.99,,2013-07-04 12:43:00,
2013-07-04 13:12:00,55.0,46.0,-100.00,West,265,9.0,11.0,72,-99.99,,,-99.99,,2013-07-04 13:12:00,
2013-07-04 13:43:00,58.0,47.0,-100.00,West,265,10.0,14.0,65,-99.99,,,-99.99,,2013-07-04 13:43:00,
2013-07-04 14:02:00,59.0,47.0,-100.00,West,270,11.0,12.0,63,-99.99,,,-99.99,,2013-07-04 14:02:00,
2013-07-04 14:43:00,61.0,47.0,-100.00,West,270,9.0,11.0,59,-99.99,,,-99.99,,2013-07-04 14:43:00,
2013-07-04 15:23:00,65.0,47.0,-100.00,WNW,285,10.0,12.0,53,-99.99,,,-99.99,,2013-07-04 15:23:00,
2013-07-04 15:33:00,66.0,48.0,-100.00,West,275,9.0,12.0,52,-99.99,,,-99.99,,2013-07-04 15:33:00,
2013-07-04 15:43:00,66.0,48.0,-100.00,WNW,300,11.0,13.0,52,-99.99,,,-99.99,,2013-07-04 15:43:00,
2013-07-04 16:02:00,67.0,48.0,-100.00,West,275,9.0,12.0,50,-99.99,,,-99.99,,2013-07-04 16:02:00,
2013-07-04 16:11:00,68.0,48.0,-100.00,WNW,285,8.0,12.0,48,-99.99,,,-99.99,,2013-07-04 16:11:00,
2013-07-04 16:33:00,71.0,48.0,-100.00,WNW,295,4.0,11.0,43,-99.99,,,-99.99,,2013-07-04 16:33:00,
2013-07-04 16:42:00,70.0,47.0,-100.00,West,270,7.0,11.0,43,-99.99,,,-99.99,,2013-07-04 16:42:00,
2013-07-04 16:52:00,71.0,46.0,-100.00,WNW,300,9.0,14.0,40,-99.99,,,-99.99,,2013-07-04 16:52:00,
2013-07-04 17:11:00,71.0,44.0,-100.00,West,275,10.0,14.0,37,-99.99,,,-99.99,,2013-07-04 17:11:00,
2013-07-04 17:22:00,70.0,44.0,-100.00,NW,305,12.0,17.0,38,-99.99,,,-99.99,,2013-07-04 17:22:00,
2013-07-04 17:43:00,71.0,44.0,-100.00,NW,320,16.0,21.0,37,-99.99,,,-99.99,,2013-07-04 17:43:00,
2013-07-04 17:53:00,71.0,43.0,-100.00,NW,315,15.0,20.0,37,-99.99,,,-99.99,,2013-07-04 17:53:00,
2013-07-04 18:01:00,71.0,43.0,-100.00,NNW,330,11.0,21.0,36,-99.99,,,-99.99,,2013-07-04 18:01:00,
2013-07-04 18:11:00,71.0,43.0,-100.00,NW,325,10.0,20.0,36,-99.99,,,-99.99,,2013-07-04 18:11:00,
2013-07-04 18:43:00,70.0,42.0,-100.00,NNE,20,9.0,19.0,36,-99.99,,,-99.99,,2013-07-04 18:43:00,
2013-07-04 19:12:00,71.0,42.0,-100.00,North,0,4.0,11.0,35,-99.99,,,-99.99,,2013-07-04 19:12:00,
2013-07-04 19:22:00,71.0,42.0,-100.00,NNW,345,7.0,14.0,35,-99.99,,,-99.99,,2013-07-04 19:22:00,
2013-07-04 19:43:00,71.0,41.0,-100.00,NNE,20,9.0,14.0,33,-99.99,,,-99.99,,2013-07-04 19:43:00,
2013-07-04 20:01:00,73.0,42.0,-100.00,NE,50,1.0,9.0,32,-99.99,,,-99.99,,2013-07-04 20:01:00,
2013-07-04 20:11:00,72.0,41.0,-100.00,North,0,5.0,11.0,32,-99.99,,,-99.99,,2013-07-04 20:11:00,
2013-07-04 20:22:00,72.0,41.0,-100.00,NE,55,4.0,13.0,32,-99.99,,,-99.99,,2013-07-04 20:22:00,
2013-07-04 20:33:00,73.0,41.0,-100.00,North,10,6.0,11.0,31,-99.99,,,-99.99,,2013-07-04 20:33:00,
2013-07-04 20:42:00,75.0,42.0,-100.00,North,0,4.0,11.0,31,-99.99,,,-99.99,,2013-07-04 20:42:00,
2013-07-04 20:53:00,72.0,40.0,-100.00,North,10,7.0,12.0,31,-99.99,,,-99.99,,2013-07-04 20:53:00,
2013-07-04 21:01:00,73.0,41.0,-100.00,NNE,15,4.0,9.0,31,-99.99,,,-99.99,,2013-07-04 21:01:00,
2013-07-04 21:11:00,75.0,42.0,-100.00,NNE,20,3.0,7.0,30,-99.99,,,-99.99,,2013-07-04 21:11:00,
2013-07-04 21:43:00,73.0,39.0,-100.00,NE,50,12.0,16.0,28,-99.99,,,-99.99,,2013-07-04 21:43:00,
2013-07-04 22:01:00,72.0,38.0,-100.00,ENE,75,9.0,13.0,29,-99.99,,,-99.99,,2013-07-04 22:01:00,
2013-07-04 22:33:00,73.0,39.0,-100.00,NE,35,10.0,14.0,29,-99.99,,,-99.99,,2013-07-04 22:33:00,
2013-07-04 22:43:00,73.0,39.0,-100.00,ENE,60,8.0,14.0,29,-99.99,,,-99.99,,2013-07-04 22:43:00,
2013-07-04 23:01:00,74.0,40.0,-100.00,NE,45,7.0,14.0,28,-99.99,,,-99.99,,2013-07-04 23:01:00,
2013-07-04 23:33:00,76.0,40.0,-100.00,East,80,6.0,11.0,27,-99.99,,,-99.99,,2013-07-04 23:33:00,
2013-07-04 23:42:00,75.0,39.0,-100.00,ENE,60,6.0,13.0,27,-99.99,,,-99.99,,2013-07-04 23:42:00,
2013-07-04 23:52:00,74.0,39.0,-100.00,East,85,10.0,13.0,28,-99.99,,,-99.99,,2013-07-04 23:52:00,